Precipitable_Water
0.67 0.67 0.67 0.67 0.67 0.69 0.71 0.73 0.75 0.81 0.85 0.89 0.91 0.93 0.97 0.99 1.03 1.05 1.07 1.07 1.07 1.07 1.07 1.05 1.05 1.05 1.07 1.09 1.11 1.13 1.15 1.15 1.15 1.17 1.15 1.13 1.13 1.13 1.13 1.15 1.15 1.15 1.15 1.17 1.19 1.20 1.22 1.24 1.24 1.24 1.22 1.24 1.24 1.26 1.28 1.30 1.30 1.30 1.30 1.30 1.30 1.28 1.28 1.28 1.26 1.28 1.28 1.28 1.28
0.69 0.67 0.67 0.67 0.67 0.67 0.67 0.67 0.69 0.73 0.77 0.81 0.83 0.87 0.89 0.93 0.97 0.99 1.01 1.03 1.05 1.07 1.07 1.09 1.09 1.09 1.07 1.07 1.09 1.09 1.11 1.11 1.13 1.15 1.17 1.17 1.15 1.15 1.15 1.15 1.15 1.15 1.17 1.17 1.17 1.19 1.19 1.20 1.20 1.20 1.20 1.22 1.22 1.22 1.24 1.28 1.28 1.28 1.28 1.28 1.28 1.28 1.28 1.28 1.26 1.26 1.26 1.26 1.28
0.69 0.69 0.69 0.67 0.67 0.65 0.65 0.65 0.65 0.67 0.71 0.73 0.77 0.79 0.81 0.85 0.89 0.93 0.95 0.99 1.01 1.03 1.05 1.07 1.09 1.09 1.09 1.09 1.09 1.09 1.09 1.11 1.11 1.13 1.17 1.19 1.19 1.17 1.17 1.17 1.15 1.17 1.17 1.17 1.17 1.17 1.19 1.19 1.19 1.19 1.19 1.19 1.20 1.20 1.22 1.26 1.26 1.26 1.26 1.26 1.26 1.26 1.26 1.28 1.28 1.28 1.28 1.28 1.28
0.67 0.67 0.67 0.67 0.67 0.65 0.65 0.65 0.65 0.65 0.67 0.69 0.69 0.71 0.75 0.77 0.81 0.85 0.89 0.93 0.95 0.97 0.99 1.01 1.03 1.05 1.05 1.07 1.07 1.07 1.11 1.11 1.11 1.11 1.13 1.15 1.17 1.19 1.19 1.19 1.17 1.17 1.17 1.17 1.17 1.19 1.19 1.19 1.19 1.17 1.17 1.17 1.17 1.19 1.19 1.20 1.24 1.24 1.24 1.24 1.26 1.26 1.26 1.26 1.28 1.28 1.28 1.28 1.28
0.63 0.63 0.65 0.67 0.67 0.67 0.67 0.67 0.65 0.65 0.65 0.67 0.67 0.67 0.69 0.71 0.75 0.79 0.81 0.83 0.85 0.89 0.93 0.97 0.97 0.99 1.01 0.99 1.01 1.05 1.09 1.09 1.11 1.11 1.11 1.13 1.15 1.17 1.17 1.17 1.17 1.17 1.17 1.17 1.17 1.17 1.17 1.17 1.17 1.17 1.17 1.17 1.17 1.17 1.19 1.19 1.20 1.22 1.22 1.22 1.24 1.24 1.24 1.26 1.26 1.26 1.28 1.28 1.26
0.59 0.61 0.61 0.63 0.65 0.65 0.67 0.67 0.67 0.67 0.67 0.67 0.65 0.65 0.65 0.67 0.69 0.71 0.73 0.75 0.79 0.81 0.85 0.93 0.95 0.93 0.93 0.95 0.97 1.01 1.05 1.07 1.09 1.09 1.09 1.09 1.11 1.13 1.13 1.15 1.15 1.15 1.17 1.17 1.17 1.17 1.15 1.17 1.17 1.17 1.17 1.17 1.15 1.17 1.17 1.17 1.19 1.19 1.19 1.19 1.20 1.22 1.22 1.22 1.24 1.26 1.26 1.26 1.22
0.57 0.59 0.59 0.61 0.61 0.63 0.63 0.65 0.65 0.67 0.67 0.67 0.65 0.65 0.65 0.65 0.67 0.67 0.69 0.71 0.73 0.77 0.79 0.85 0.83 0.83 0.87 0.89 0.93 0.95 0.99 1.03 1.05 1.07 1.07 1.09 1.09 1.09 1.11 1.11 1.13 1.13 1.13 1.15 1.15 1.15 1.15 1.15 1.15 1.15 1.15 1.15 1.15 1.15 1.15 1.17 1.15 1.15 1.13 1.15 1.17 1.19 1.20 1.20 1.22 1.22 1.22 1.22 1.20
0.56 0.57 0.57 0.59 0.59 0.59 0.61 0.61 0.63 0.65 0.65 0.67 0.65 0.65 0.65 0.65 0.65 0.65 0.67 0.67 0.69 0.69 0.71 0.73 0.75 0.77 0.79 0.81 0.85 0.89 0.93 0.99 1.01 1.03 1.05 1.05 1.07 1.07 1.09 1.09 1.11 1.11 1.11 1.13 1.13 1.13 1.13 1.13 1.13 1.13 1.13 1.15 1.13 1.13 1.13 1.15 1.15 1.13 1.11 1.11 1.13 1.15 1.17 1.19 1.19 1.20 1.20 1.19 1.19
0.50 0.52 0.54 0.57 0.57 0.59 0.59 0.59 0.61 0.61 0.63 0.63 0.63 0.65 0.65 0.67 0.67 0.67 0.67 0.67 0.67 0.67 0.69 0.69 0.71 0.73 0.75 0.75 0.77 0.81 0.85 0.93 0.97 0.99 1.01 1.03 1.03 1.05 1.07 1.07 1.07 1.09 1.09 1.11 1.09 1.11 1.11 1.11 1.11 1.13 1.13 1.13 1.13 1.13 1.13 1.13 1.13 1.11 1.11 1.09 1.11 1.11 1.13 1.15 1.17 1.17 1.17 1.15 1.15
0.46 0.48 0.50 0.52 0.52 0.54 0.56 0.57 0.59 0.59 0.59 0.61 0.61 0.63 0.63 0.65 0.65 0.65 0.67 0.67 0.67 0.67 0.67 0.67 0.69 0.71 0.71 0.73 0.73 0.75 0.79 0.85 0.89 0.93 0.97 0.99 1.01 1.01 1.03 1.05 1.05 1.05 1.07 1.07 1.07 1.07 1.09 1.09 1.09 1.11 1.11 1.13 1.13 1.13 1.13 1.13 1.11 1.11 1.09 1.09 1.09 1.09 1.09 1.11 1.13 1.13 1.13 1.13 1.13
0.44 0.46 0.48 0.48 0.50 0.50 0.52 0.52 0.54 0.56 0.57 0.57 0.59 0.59 0.59 0.61 0.61 0.63 0.65 0.65 0.65 0.65 0.65 0.67 0.67 0.67 0.69 0.69 0.71 0.73 0.75 0.75 0.79 0.83 0.87 0.91 0.95 0.97 0.99 1.01 1.01 1.01 1.01 1.01 1.03 1.03 1.05 1.07 1.07 1.09 1.09 1.11 1.11 1.11 1.11 1.11 1.09 1.09 1.09 1.09 1.09 1.07 1.07 1.09 1.11 1.11 1.11 1.09 1.11
0.44 0.44 0.46 0.46 0.46 0.48 0.48 0.48 0.50 0.52 0.54 0.54 0.56 0.57 0.59 0.59 0.61 0.61 0.63 0.61 0.61 0.63 0.63 0.65 0.67 0.67 0.67 0.67 0.69 0.71 0.73 0.73 0.75 0.77 0.79 0.83 0.87 0.91 0.93 0.97 0.99 0.99 0.99 0.99 1.01 1.01 1.03 1.03 1.05 1.05 1.07 1.07 1.09 1.09 1.09 1.09 1.07 1.07 1.07 1.07 1.07 1.07 1.07 1.07 1.09 1.09 1.09 1.07 1.07
0.44 0.44 0.44 0.44 0.44 0.44 0.46 0.46 0.46 0.48 0.50 0.52 0.52 0.54 0.56 0.57 0.59 0.59 0.61 0.61 0.61 0.61 0.61 0.63 0.65 0.65 0.67 0.67 0.67 0.69 0.69 0.71 0.73 0.73 0.75 0.75 0.79 0.81 0.85 0.89 0.93 0.93 0.93 0.95 0.97 0.99 0.99 0.99 1.01 1.03 1.03 1.05 1.05 1.07 1.07 1.05 1.05 1.05 1.05 1.05 1.05 1.05 1.05 1.05 1.07 1.07 1.07 1.05 1.05
0.44 0.44 0.44 0.44 0.44 0.44 0.44 0.44 0.44 0.46 0.46 0.48 0.50 0.52 0.52 0.54 0.56 0.57 0.59 0.59 0.59 0.61 0.61 0.61 0.61 0.63 0.65 0.65 0.67 0.67 0.67 0.69 0.69 0.71 0.71 0.73 0.75 0.75 0.77 0.81 0.85 0.85 0.87 0.89 0.91 0.93 0.95 0.97 0.99 0.99 1.01 1.01 1.01 1.03 1.01 0.99 1.01 1.01 1.03 1.03 1.03 1.03 1.03 1.05 1.05 1.05 1.05 1.05 1.03
0.42 0.42 0.44 0.44 0.44 0.44 0.42 0.42 0.42 0.44 0.44 0.46 0.46 0.48 0.50 0.50 0.52 0.54 0.56 0.57 0.57 0.59 0.59 0.59 0.61 0.61 0.63 0.63 0.65 0.65 0.65 0.67 0.67 0.69 0.69 0.71 0.71 0.73 0.73 0.73 0.73 0.75 0.79 0.83 0.85 0.87 0.91 0.93 0.95 0.95 0.97 0.97 0.97 0.97 0.95 0.93 0.93 0.95 0.99 1.01 1.01 1.03 1.03 1.03 1.05 1.05 1.03 1.03 1.03
0.42 0.42 0.42 0.42 0.42 0.42 0.42 0.42 0.42 0.44 0.44 0.44 0.46 0.46 0.46 0.48 0.48 0.50 0.52 0.54 0.54 0.56 0.57 0.57 0.59 0.59 0.61 0.61 0.63 0.63 0.63 0.65 0.65 0.65 0.67 0.67 0.69 0.69 0.69 0.69 0.69 0.71 0.73 0.77 0.79 0.81 0.83 0.87 0.89 0.91 0.93 0.93 0.93 0.91 0.89 0.87 0.87 0.87 0.89 0.95 0.99 1.01 1.01 1.03 1.03 1.01 1.01 1.03 1.01
0.40 0.40 0.40 0.42 0.42 0.42 0.42 0.42 0.42 0.44 0.44 0.44 0.44 0.44 0.46 0.46 0.46 0.48 0.48 0.50 0.50 0.52 0.54 0.56 0.56 0.57 0.59 0.59 0.61 0.61 0.61 0.61 0.63 0.63 0.63 0.65 0.65 0.67 0.67 0.65 0.67 0.67 0.69 0.71 0.73 0.75 0.77 0.79 0.83 0.85 0.87 0.87 0.89 0.87 0.85 0.85 0.85 0.83 0.83 0.83 0.89 0.95 0.99 1.01 0.97 0.97 0.99 0.99 0.99
0.40 0.40 0.40 0.40 0.40 0.40 0.40 0.40 0.42 0.42 0.44 0.44 0.44 0.44 0.44 0.44 0.46 0.46 0.46 0.46 0.46 0.48 0.48 0.50 0.52 0.54 0.56 0.59 0.59 0.59 0.59 0.59 0.59 0.61 0.61 0.63 0.63 0.63 0.63 0.65 0.65 0.65 0.67 0.67 0.69 0.71 0.73 0.75 0.77 0.77 0.79 0.81 0.81 0.81 0.81 0.81 0.81 0.81 0.81 0.79 0.81 0.85 0.91 0.95 0.91 0.91 0.93 0.95 0.97
0.38 0.38 0.38 0.38 0.38 0.40 0.40 0.40 0.40 0.42 0.44 0.44 0.44 0.46 0.46 0.46 0.46 0.44 0.44 0.44 0.44 0.44 0.46 0.46 0.48 0.50 0.52 0.56 0.57 0.59 0.59 0.59 0.59 0.59 0.59 0.61 0.61 0.61 0.61 0.63 0.63 0.65 0.65 0.65 0.65 0.67 0.67 0.69 0.71 0.73 0.73 0.75 0.73 0.73 0.75 0.77 0.77 0.79 0.79 0.77 0.77 0.77 0.79 0.83 0.83 0.83 0.87 0.89 0.91
0.38 0.38 0.38 0.38 0.38 0.38 0.38 0.38 0.38 0.40 0.42 0.44 0.44 0.44 0.46 0.46 0.46 0.46 0.44 0.44 0.44 0.44 0.44 0.44 0.44 0.46 0.48 0.52 0.54 0.56 0.57 0.59 0.59 0.59 0.59 0.59 0.59 0.59 0.59 0.61 0.61 0.63 0.63 0.63 0.63 0.65 0.65 0.65 0.67 0.69 0.69 0.71 0.69 0.69 0.69 0.73 0.73 0.75 0.75 0.75 0.77 0.77 0.75 0.75 0.77 0.77 0.79 0.81 0.85
0.36 0.36 0.38 0.38 0.38 0.38 0.38 0.38 0.38 0.38 0.40 0.42 0.42 0.44 0.44 0.44 0.46 0.46 0.46 0.46 0.46 0.44 0.44 0.42 0.42 0.42 0.44 0.46 0.50 0.52 0.56 0.57 0.57 0.57 0.57 0.57 0.57 0.57 0.59 0.59 0.59 0.59 0.61 0.61 0.61 0.63 0.63 0.63 0.63 0.65 0.65 0.65 0.65 0.65 0.65 0.67 0.69 0.71 0.71 0.73 0.73 0.75 0.75 0.73 0.75 0.75 0.75 0.75 0.77
0.36 0.36 0.36 0.36 0.38 0.38 0.38 0.38 0.38 0.38 0.38 0.38 0.40 0.40 0.42 0.42 0.44 0.44 0.46 0.46 0.46 0.46 0.46 0.44 0.42 0.42 0.42 0.42 0.46 0.48 0.52 0.54 0.56 0.56 0.56 0.57 0.57 0.57 0.59 0.59 0.57 0.57 0.57 0.59 0.59 0.59 0.61 0.61 0.61 0.61 0.61 0.59 0.59 0.61 0.63 0.63 0.65 0.67 0.69 0.69 0.71 0.71 0.71 0.71 0.71 0.73 0.73 0.73 0.73
0.36 0.36 0.36 0.36 0.36 0.36 0.36 0.36 0.36 0.36 0.36 0.38 0.38 0.38 0.40 0.40 0.42 0.42 0.44 0.46 0.48 0.48 0.48 0.48 0.46 0.44 0.42 0.42 0.44 0.46 0.48 0.50 0.50 0.52 0.52 0.56 0.56 0.57 0.57 0.57 0.57 0.57 0.57 0.57 0.57 0.57 0.59 0.59 0.59 0.59 0.57 0.57 0.57 0.57 0.57 0.59 0.61 0.61 0.63 0.67 0.67 0.67 0.67 0.69 0.69 0.69 0.71 0.71 0.73
0.34 0.34 0.34 0.34 0.34 0.34 0.34 0.34 0.34 0.34 0.34 0.34 0.36 0.36 0.36 0.38 0.38 0.40 0.42 0.44 0.46 0.48 0.48 0.48 0.48 0.48 0.46 0.44 0.44 0.44 0.44 0.44 0.46 0.48 0.50 0.52 0.54 0.54 0.56 0.57 0.57 0.57 0.57 0.57 0.57 0.57 0.57 0.57 0.57 0.57 0.57 0.57 0.56 0.56 0.56 0.56 0.56 0.57 0.59 0.61 0.63 0.63 0.63 0.65 0.65 0.67 0.67 0.69 0.71
0.32 0.32 0.32 0.32 0.34 0.34 0.34 0.34 0.32 0.32 0.32 0.32 0.32 0.34 0.34 0.34 0.36 0.36 0.38 0.40 0.42 0.44 0.46 0.48 0.50 0.50 0.50 0.48 0.46 0.44 0.42 0.42 0.44 0.44 0.46 0.48 0.50 0.52 0.54 0.56 0.57 0.57 0.57 0.59 0.59 0.59 0.59 0.59 0.57 0.59 0.59 0.59 0.57 0.57 0.56 0.54 0.54 0.54 0.56 0.56 0.57 0.57 0.57 0.59 0.61 0.63 0.65 0.67 0.67
0.30 0.30 0.30 0.30 0.32 0.32 0.32 0.32 0.32 0.32 0.32 0.32 0.32 0.32 0.32 0.32 0.32 0.34 0.34 0.36 0.38 0.40 0.44 0.46 0.48 0.50 0.50 0.50 0.50 0.46 0.44 0.42 0.42 0.42 0.44 0.44 0.46 0.48 0.50 0.52 0.54 0.56 0.57 0.59 0.59 0.59 0.59 0.59 0.59 0.61 0.61 0.59 0.59 0.59 0.57 0.56 0.56 0.54 0.54 0.52 0.52 0.52 0.54 0.56 0.57 0.59 0.61 0.63 0.65
0.28 0.28 0.28 0.28 0.30 0.30 0.30 0.30 0.30 0.30 0.30 0.30 0.30 0.30 0.30 0.30 0.30 0.30 0.30 0.32 0.34 0.36 0.38 0.40 0.44 0.46 0.48 0.48 0.48 0.48 0.48 0.44 0.42 0.42 0.42 0.44 0.44 0.46 0.46 0.48 0.50 0.52 0.56 0.57 0.57 0.59 0.59 0.59 0.61 0.61 0.61 0.61 0.61 0.59 0.59 0.59 0.57 0.56 0.56 0.54 0.54 0.52 0.52 0.52 0.54 0.56 0.57 0.59 0.61
0.26 0.26 0.26 0.28 0.28 0.28 0.28 0.28 0.28 0.30 0.30 0.30 0.30 0.30 0.30 0.30 0.28 0.28 0.28 0.28 0.30 0.32 0.34 0.36 0.38 0.38 0.38 0.42 0.44 0.48 0.48 0.46 0.44 0.42 0.42 0.42 0.42 0.44 0.44 0.46 0.48 0.48 0.50 0.54 0.56 0.57 0.57 0.57 0.57 0.59 0.61 0.61 0.61 0.61 0.61 0.61 0.59 0.59 0.57 0.56 0.56 0.56 0.54 0.52 0.52 0.52 0.54 0.56 0.59
0.26 0.26 0.26 0.26 0.26 0.26 0.26 0.26 0.26 0.28 0.28 0.28 0.28 0.28 0.28 0.28 0.28 0.28 0.28 0.28 0.28 0.28 0.30 0.30 0.30 0.30 0.32 0.34 0.38 0.42 0.46 0.48 0.46 0.44 0.42 0.42 0.42 0.42 0.44 0.44 0.46 0.46 0.48 0.52 0.54 0.54 0.56 0.54 0.56 0.57 0.57 0.59 0.61 0.61 0.61 0.61 0.61 0.61 0.59 0.59 0.59 0.57 0.57 0.56 0.54 0.54 0.52 0.52 0.56
0.24 0.24 0.24 0.24 0.24 0.24 0.24 0.26 0.26 0.26 0.26 0.26 0.28 0.28 0.28 0.28 0.28 0.28 0.28 0.28 0.26 0.26 0.28 0.28 0.28 0.28 0.28 0.30 0.32 0.34 0.38 0.44 0.46 0.46 0.44 0.42 0.42 0.42 0.42 0.44 0.44 0.46 0.46 0.48 0.52 0.52 0.52 0.54 0.54 0.54 0.56 0.57 0.57 0.59 0.61 0.61 0.61 0.61 0.61 0.59 0.59 0.59 0.59 0.57 0.56 0.56 0.54 0.54 0.54
0.22 0.22 0.22 0.22 0.24 0.24 0.24 0.24 0.24 0.26 0.26 0.26 0.26 0.26 0.26 0.26 0.26 0.26 0.26 0.26 0.26 0.28 0.28 0.26 0.26 0.26 0.26 0.28 0.28 0.30 0.32 0.36 0.44 0.46 0.44 0.42 0.42 0.42 0.42 0.42 0.44 0.44 0.46 0.46 0.48 0.50 0.50 0.52 0.54 0.54 0.54 0.56 0.56 0.57 0.57 0.59 0.59 0.59 0.59 0.59 0.59 0.59 0.59 0.59 0.59 0.57 0.56 0.56 0.54
0.22 0.22 0.22 0.22 0.22 0.22 0.22 0.22 0.24 0.24 0.24 0.24 0.24 0.24 0.24 0.24 0.24 0.24 0.26 0.26 0.26 0.26 0.26 0.26 0.26 0.26 0.26 0.26 0.26 0.28 0.30 0.32 0.34 0.40 0.44 0.44 0.42 0.42 0.42 0.42 0.42 0.44 0.44 0.46 0.46 0.46 0.48 0.50 0.52 0.52 0.54 0.54 0.54 0.56 0.56 0.56 0.57 0.57 0.59 0.59 0.59 0.59 0.59 0.59 0.59 0.59 0.57 0.57 0.57
0.20 0.20 0.20 0.20 0.20 0.20 0.20 0.20 0.22 0.22 0.22 0.22 0.22 0.22 0.22 0.22 0.24 0.24 0.24 0.24 0.26 0.26 0.26 0.26 0.26 0.26 0.26 0.26 0.26 0.26 0.28 0.28 0.30 0.36 0.42 0.44 0.44 0.44 0.42 0.42 0.42 0.42 0.44 0.44 0.44 0.44 0.46 0.48 0.48 0.50 0.52 0.52 0.54 0.54 0.54 0.54 0.56 0.56 0.56 0.56 0.57 0.57 0.59 0.59 0.59 0.59 0.59 0.59 0.59
0.18 0.18 0.18 0.18 0.18 0.18 0.18 0.18 0.20 0.20 0.20 0.20 0.20 0.20 0.22 0.22 0.22 0.22 0.22 0.24 0.24 0.24 0.26 0.26 0.26 0.26 0.26 0.26 0.26 0.26 0.26 0.28 0.30 0.30 0.34 0.40 0.42 0.44 0.42 0.42 0.42 0.42 0.42 0.40 0.42 0.42 0.42 0.44 0.46 0.48 0.50 0.52 0.52 0.52 0.52 0.52 0.54 0.52 0.52 0.54 0.56 0.56 0.57 0.59 0.59 0.59 0.59 0.59 0.59
0.18 0.18 0.18 0.18 0.18 0.18 0.18 0.18 0.18 0.18 0.18 0.18 0.18 0.18 0.20 0.20 0.20 0.22 0.22 0.22 0.22 0.24 0.24 0.24 0.24 0.24 0.26 0.26 0.26 0.26 0.26 0.26 0.28 0.28 0.30 0.32 0.38 0.40 0.42 0.42 0.42 0.40 0.40 0.40 0.40 0.40 0.40 0.40 0.42 0.44 0.46 0.48 0.50 0.50 0.50 0.50 0.50 0.50 0.50 0.50 0.52 0.54 0.56 0.57 0.57 0.59 0.59 0.59 0.61
0.16 0.16 0.16 0.16 0.16 0.16 0.16 0.16 0.16 0.16 0.16 0.16 0.16 0.16 0.18 0.18 0.18 0.20 0.20 0.22 0.22 0.22 0.22 0.24 0.24 0.24 0.24 0.24 0.24 0.24 0.24 0.26 0.26 0.28 0.28 0.30 0.34 0.36 0.38 0.40 0.40 0.40 0.40 0.38 0.38 0.38 0.38 0.38 0.40 0.40 0.42 0.46 0.46 0.48 0.48 0.48 0.46 0.46 0.46 0.46 0.48 0.50 0.52 0.54 0.56 0.57 0.59 0.59 0.59
0.16 0.16 0.16 0.16 0.16 0.16 0.16 0.16 0.16 0.16 0.16 0.16 0.16 0.16 0.16 0.16 0.18 0.18 0.18 0.20 0.20 0.20 0.20 0.22 0.22 0.22 0.22 0.24 0.24 0.24 0.24 0.24 0.26 0.26 0.28 0.28 0.30 0.32 0.34 0.36 0.36 0.38 0.38 0.38 0.38 0.38 0.38 0.38 0.38 0.38 0.40 0.42 0.42 0.44 0.44 0.44 0.44 0.44 0.44 0.44 0.44 0.46 0.48 0.50 0.52 0.54 0.56 0.54 0.57
0.16 0.16 0.16 0.16 0.14 0.14 0.14 0.14 0.14 0.14 0.14 0.14 0.14 0.14 0.16 0.16 0.16 0.16 0.18 0.18 0.18 0.18 0.20 0.20 0.20 0.22 0.22 0.22 0.22 0.24 0.24 0.24 0.26 0.26 0.26 0.28 0.28 0.30 0.30 0.32 0.32 0.34 0.36 0.36 0.38 0.38 0.38 0.38 0.36 0.36 0.38 0.38 0.40 0.40 0.42 0.40 0.42 0.42 0.42 0.42 0.42 0.44 0.44 0.46 0.48 0.50 0.52 0.50 0.54
0.14 0.14 0.14 0.14 0.14 0.14 0.14 0.14 0.14 0.14 0.14 0.14 0.14 0.14 0.14 0.14 0.16 0.16 0.16 0.16 0.18 0.18 0.18 0.18 0.20 0.20 0.20 0.22 0.22 0.22 0.24 0.24 0.24 0.26 0.26 0.26 0.28 0.28 0.28 0.28 0.30 0.32 0.34 0.34 0.36 0.36 0.36 0.36 0.36 0.36 0.36 0.36 0.36 0.38 0.38 0.38 0.40 0.40 0.40 0.40 0.40 0.42 0.42 0.44 0.44 0.46 0.46 0.46 0.48
0.14 0.14 0.14 0.14 0.14 0.14 0.14 0.14 0.14 0.14 0.14 0.14 0.14 0.14 0.14 0.14 0.14 0.16 0.16 0.16 0.16 0.16 0.16 0.18 0.18 0.18 0.20 0.20 0.20 0.22 0.22 0.22 0.24 0.24 0.24 0.26 0.26 0.26 0.28 0.28 0.28 0.30 0.32 0.34 0.34 0.34 0.36 0.36 0.36 0.36 0.36 0.34 0.36 0.36 0.36 0.38 0.38 0.38 0.38 0.38 0.38 0.40 0.40 0.42 0.42 0.42 0.42 0.44 0.46
0.14 0.14 0.14 0.14 0.14 0.14 0.14 0.12 0.14 0.14 0.14 0.14 0.14 0.14 0.14 0.14 0.14 0.14 0.16 0.16 0.16 0.16 0.16 0.16 0.16 0.18 0.18 0.20 0.20 0.20 0.20 0.22 0.22 0.22 0.24 0.24 0.24 0.24 0.26 0.26 0.26 0.28 0.30 0.30 0.32 0.34 0.34 0.34 0.36 0.36 0.36 0.36 0.36 0.36 0.36 0.36 0.36 0.36 0.36 0.36 0.38 0.38 0.38 0.40 0.40 0.40 0.40 0.42 0.42
Wind_Speed
11 11 11 11 11 12 12 13 13 14 15 15 16 17 17 17 17 17 17 17 17 17 18 18 19 20 21 21 22 22 22 22 22 23 23 23 23 23 23 22 22 23 23 23 23 23 23 23 23 25 27 28 29 30 30 30 29 28 27 26 26 26 26 26 27 27 27 29 30
11 11 11 11 12 12 12 12 13 13 14 15 16 16 17 18 18 19 19 19 18 18 18 18 19 20 20 21 22 22 22 22 22 23 23 24 24 24 23 23 23 23 23 23 23 24 23 23 23 24 25 27 28 29 30 31 31 30 30 29 28 28 28 28 27 27 26 26 26
12 12 12 12 12 12 13 13 13 14 14 15 15 16 16 17 18 19 19 20 20 20 20 20 20 20 20 21 21 22 22 22 22 22 22 23 23 24 24 24 24 24 24 24 24 24 24 24 24 25 25 27 28 28 29 30 31 31 31 31 30 30 29 29 29 28 27 26 25
13 13 13 13 13 13 13 13 14 14 14 15 15 15 16 17 17 18 19 20 21 21 21 21 21 21 21 21 21 21 22 22 22 22 22 22 22 23 24 24 24 24 24 24 24 25 25 25 25 26 26 27 28 28 29 29 29 30 30 30 30 30 30 30 30 29 29 28 28
14 14 14 14 14 14 14 14 14 15 15 15 15 16 16 16 17 17 18 19 20 20 21 21 22 22 21 21 21 21 21 22 22 23 23 23 22 23 23 23 24 24 24 24 24 25 25 25 26 26 26 27 28 28 29 29 29 29 30 30 30 29 29 29 29 29 29 30 29
15 15 15 15 15 15 15 15 15 15 15 16 16 16 16 17 17 17 18 18 19 19 20 20 21 21 22 22 21 21 21 22 22 23 23 23 23 23 23 23 24 24 24 24 24 24 24 25 25 26 26 27 27 28 28 28 28 29 29 30 29 29 29 28 28 28 28 29 29
16 16 16 16 16 16 16 16 16 16 16 16 17 17 17 17 18 18 18 19 19 19 19 20 20 20 21 21 22 22 22 22 22 23 23 24 24 24 24 24 24 24 24 25 25 24 24 24 24 24 25 26 27 27 27 27 27 28 29 29 30 29 29 28 28 28 28 28 28
17 17 17 17 17 17 17 17 17 17 17 17 17 18 18 18 18 19 19 19 19 19 20 20 20 20 21 21 21 22 22 23 23 23 24 24 24 25 25 25 25 25 25 25 25 25 24 24 23 23 24 25 26 26 26 26 26 27 27 28 29 29 29 29 29 28 28 28 28
18 18 18 18 18 18 18 18 18 18 18 18 18 18 18 18 19 19 19 20 20 20 20 20 20 21 21 21 21 22 22 23 23 24 25 25 25 26 26 26 26 26 25 25 25 25 25 25 24 24 24 24 25 25 25 25 25 26 27 27 28 29 29 29 29 29 29 29 29
19 19 19 19 19 19 19 19 19 19 19 19 19 19 19 19 19 19 20 20 20 21 21 21 21 21 21 22 22 22 22 23 23 24 25 26 26 27 27 27 27 27 26 26 26 25 25 25 25 25 25 25 24 24 25 25 25 25 26 27 28 29 29 29 29 29 29 29 29
21 20 20 20 20 20 20 20 19 19 20 20 20 20 20 20 20 20 20 20 21 21 21 22 22 22 22 22 22 23 23 23 23 24 24 25 26 27 27 27 28 28 27 27 27 26 26 26 26 27 26 26 25 25 25 25 25 25 26 27 28 29 29 29 29 29 30 30 30
22 22 21 21 21 21 21 21 21 21 21 21 21 21 21 21 21 21 21 21 21 21 22 22 22 22 23 23 23 23 23 23 24 24 24 25 25 26 27 27 28 28 28 28 28 28 27 27 27 27 28 27 27 26 26 26 26 26 27 28 29 29 30 30 30 30 30 30 30
23 23 23 23 23 23 22 22 22 22 22 22 22 22 22 22 22 22 22 22 22 22 22 22 22 23 23 23 24 24 24 24 24 24 25 25 25 25 26 27 27 27 28 28 28 28 28 28 28 29 29 29 28 28 28 27 27 27 28 28 29 29 29 29 29 30 30 30 31
25 24 24 24 24 24 24 24 24 23 23 23 23 23 23 23 23 23 23 23 23 23 23 23 23 23 23 24 24 24 24 25 25 25 25 25 26 26 26 26 27 27 28 28 28 28 29 29 29 30 30 30 29 29 29 29 29 29 29 29 29 29 28 28 28 29 29 30 31
26 26 26 26 26 25 25 25 25 25 25 25 25 24 24 24 24 24 24 24 24 24 24 24 24 24 24 24 24 24 25 25 25 26 26 26 26 26 27 27 27 27 28 28 28 28 29 29 29 30 30 30 30 30 30 30 30 31 31 31 30 29 29 28 28 28 29 30 31
26 27 27 27 26 26 27 27 27 27 27 27 27 26 26 25 25 25 24 24 25 25 25 25 25 25 25 24 24 25 25 25 26 26 26 27 27 27 27 27 28 28 28 28 28 28 29 29 29 29 30 30 30 30 30 31 31 31 31 31 30 30 29 29 29 30 30 30 30
28 28 28 27 27 27 27 28 28 28 28 28 28 28 28 27 27 26 26 25 25 25 26 26 26 26 26 25 25 25 25 25 26 26 26 27 27 27 28 28 28 28 29 29 29 29 29 29 29 29 29 30 30 30 31 31 31 32 32 32 31 31 31 31 31 31 31 31 31
29 29 29 29 29 28 28 29 29 29 29 30 30 30 29 29 29 28 27 27 26 26 26 26 26 26 26 26 26 26 26 26 26 26 27 27 27 28 28 28 28 29 29 29 29 30 30 30 30 30 30 30 30 30 30 31 31 32 32 32 32 32 32 32 33 33 34 33 33
30 30 30 30 30 30 30 30 30 30 30 30 30 31 31 31 31 30 30 29 28 28 28 27 27 27 27 27 27 27 27 27 27 27 27 27 27 28 28 28 29 29 29 29 30 30 30 30 30 30 30 30 30 30 31 31 31 31 32 32 32 33 33 34 35 35 36 36 36
31 31 31 31 31 31 31 31 31 31 31 31 31 31 32 32 32 32 32 31 31 30 29 29 29 28 28 28 28 28 28 27 27 28 28 28 28 28 28 29 29 29 29 30 30 30 30 31 31 31 31 31 31 31 31 31 31 31 31 32 32 32 33 34 35 36 37 37 37
33 32 32 32 32 32 33 33 33 33 33 32 32 32 32 33 33 33 33 33 33 32 31 30 30 30 30 30 30 29 29 29 28 28 28 28 28 29 29 29 29 29 29 30 30 30 31 31 31 31 31 31 31 31 31 31 32 32 32 32 32 32 33 33 34 35 36 36 37
34 34 34 34 34 34 34 34 34 34 34 34 34 34 34 34 34 34 34 34 34 34 33 32 32 31 31 31 31 31 31 30 30 30 29 29 29 29 29 29 29 30 30 30 30 31 31 31 31 32 32 32 32 32 32 32 32 32 32 33 33 33 33 33 34 34 35 35 36
36 36 36 35 35 35 35 35 35 35 35 36 36 35 35 35 35 35 35 35 35 35 35 35 34 33 32 32 32 32 32 32 32 31 31 31 30 30 30 30 30 30 31 31 31 31 31 31 32 32 32 32 32 33 32 32 32 32 33 33 33 33 34 34 34 34 34 35 35
37 37 37 37 37 37 37 37 36 36 37 37 37 37 37 37 36 36 36 36 36 37 37 36 36 35 34 33 33 33 33 33 33 33 32 32 32 32 32 31 31 31 31 31 31 31 32 32 32 32 32 33 33 33 33 33 33 33 33 33 33 34 34 34 34 34 35 35 35
39 39 39 39 38 38 38 38 38 38 38 38 38 38 38 38 38 38 37 37 37 37 38 38 37 37 36 35 34 34 33 34 34 34 34 34 33 33 33 33 33 32 32 32 32 33 33 33 33 33 33 33 33 33 33 34 34 34 34 34 34 34 34 34 34 35 35 35 35
40 40 40 40 40 40 40 40 39 39 39 39 39 39 39 39 39 39 39 39 39 38 38 38 38 38 38 37 36 35 34 34 34 35 35 35 35 34 34 34 34 34 34 34 34 34 34 34 34 34 34 33 33 34 34 34 34 34 34 34 34 34 34 35 35 35 35 35 35
42 42 42 42 41 41 41 41 41 41 41 40 40 40 39 39 40 40 40 40 40 40 39 39 39 39 39 39 38 37 36 36 35 35 35 36 36 35 35 35 35 35 35 35 35 35 36 36 35 35 35 35 35 34 34 34 34 34 34 35 35 35 35 35 35 35 35 35 35
43 43 43 43 42 42 42 42 42 42 42 42 41 41 41 40 40 40 40 41 41 41 40 40 40 40 40 40 40 39 39 38 37 37 36 36 37 37 36 36 36 36 36 36 36 37 37 37 37 37 37 36 36 36 36 36 35 35 35 35 35 35 35 35 36 36 36 36 36
44 44 44 44 44 43 43 43 43 43 43 43 43 42 42 42 41 41 41 41 41 41 41 41 41 41 40 40 41 41 41 40 40 39 38 38 38 38 38 37 37 37 37 37 37 37 38 38 38 38 38 38 38 37 37 37 37 36 36 36 36 36 36 36 36 36 36 36 36
44 45 45 45 45 44 44 44 44 44 44 44 44 44 43 43 42 42 41 41 41 41 41 42 42 42 42 42 41 41 41 42 42 41 40 40 39 39 39 39 38 38 38 38 38 38 38 38 39 39 39 39 39 39 39 39 38 38 37 37 37 37 37 36 36 36 36 36 36
45 45 45 45 45 45 45 45 45 45 45 45 45 45 45 44 44 43 43 42 42 42 42 42 42 43 43 43 42 42 42 42 42 42 42 42 41 41 40 40 39 39 39 39 39 39 39 39 39 39 40 40 40 40 40 40 40 40 39 39 38 38 38 37 37 37 37 37 37
45 45 45 46 46 46 46 46 46 46 46 46 46 46 46 46 46 45 45 44 44 43 42 42 42 43 43 43 43 42 42 42 42 42 43 43 43 42 41 41 40 40 40 40 40 40 40 40 40 40 41 41 40 40 40 41 41 41 41 41 40 40 39 39 39 38 38 38 37
45 45 45 46 46 46 46 46 46 46 46 46 47 47 47 47 47 47 47 46 46 45 44 44 43 43 43 44 44 43 43 42 42 42 42 43 43 43 43 42 41 41 41 41 41 41 41 41 41 41 42 42 41 41 41 41 42 42 42 42 42 42 41 41 40 40 40 39 39
45 45 45 46 46 46 46 46 47 47 47 47 47 47 47 47 47 47 47 47 47 47 46 46 45 44 44 43 44 44 44 43 42 42 42 42 43 43 43 43 42 42 42 42 42 42 42 42 42 42 42 42 42 42 42 42 42 42 43 43 43 43 43 42 42 42 41 41 41
45 45 45 46 46 46 46 47 47 47 47 47 47 48 48 48 48 48 48 48 48 48 48 47 47 46 45 44 44 44 44 44 43 42 42 42 42 43 43 43 43 42 42 42 42 42 42 42 42 42 42 42 42 42 42 43 43 43 43 43 43 43 44 44 43 43 43 43 42
45 45 46 46 46 46 47 47 47 47 47 47 48 48 48 48 48 48 48 48 48 48 48 48 48 47 47 46 45 44 44 44 43 43 42 42 42 43 43 44 44 43 43 43 43 43 42 42 42 42 42 42 42 42 43 43 43 43 43 43 43 44 44 44 44 44 44 44 44
46 46 47 47 47 47 47 47 47 48 48 48 48 48 48 48 48 48 48 48 48 49 49 49 49 48 48 47 46 45 45 44 44 43 43 43 42 43 43 44 44 44 43 43 43 43 43 43 43 42 42 42 42 42 43 43 43 43 43 43 43 43 43 43 44 44 44 44 45
47 47 48 48 48 48 48 48 48 48 48 49 48 48 48 48 48 48 48 48 48 49 49 49 49 49 49 48 48 47 46 45 44 44 44 44 43 43 44 44 44 44 44 44 44 44 44 44 43 43 43 42 42 42 43 43 43 43 43 43 43 43 43 43 43 43 44 44 44
47 48 48 48 49 49 49 49 49 49 49 49 49 49 49 49 49 48 48 48 48 48 49 49 49 49 49 49 48 48 48 47 45 45 44 44 44 44 44 44 45 45 45 44 45 45 45 45 44 44 44 43 43 43 43 43 43 43 44 43 43 43 43 43 43 43 43 44 44
47 48 48 48 49 49 49 49 49 50 50 50 50 50 50 49 49 49 49 49 48 49 49 49 49 49 49 48 48 48 48 48 47 46 45 45 45 45 45 45 45 45 45 45 45 46 46 45 45 45 45 44 44 43 43 43 43 44 44 44 43 43 43 43 43 43 43 43 43
47 47 47 48 48 48 49 49 49 49 49 49 50 50 50 50 49 49 49 49 49 49 49 49 49 49 49 48 48 48 49 48 48 47 47 46 46 46 46 46 46 46 46 46 46 46 47 46 46 46 46 45 45 44 44 44 44 44 44 44 44 44 43 44 43 43 43 43 43
Wind_Direction
301 300 298 295 293 290 287 283 279 275 271 268 266 265 266 266 267 267 267 266 266 264 262 258 255 252 251 250 251 251 252 252 251 250 248 247 247 246 246 244 243 241 240 240 243 247 251 253 251 249 248 249 250 251 251 252 252 252 252 251 250 249 247 246 246 245 243 240 238
301 299 297 295 293 291 290 288 285 282 278 274 271 268 266 265 265 265 265 265 265 265 264 263 260 258 256 254 252 251 251 251 250 249 248 247 246 245 245 243 242 240 239 238 239 242 246 249 250 249 249 249 249 250 251 252 252 253 253 253 253 252 250 249 248 247 246 244 242
303 300 297 295 293 292 290 288 287 285 283 281 278 274 271 268 266 265 264 264 264 264 264 264 263 263 261 258 256 254 252 250 249 249 248 247 246 245 244 243 242 240 239 238 238 239 242 245 248 249 248 248 249 250 251 251 252 252 253 254 254 254 253 252 251 250 249 247 245
304 302 299 296 294 292 289 287 286 285 284 283 281 279 277 274 271 269 267 266 266 265 265 264 264 264 263 261 259 257 254 252 250 249 248 248 247 246 245 244 243 242 240 239 239 239 240 243 246 248 248 248 248 249 250 251 252 252 252 253 254 254 254 253 252 251 250 249 248
305 303 301 298 296 293 290 287 285 284 282 281 281 280 279 278 276 274 272 271 270 268 267 266 265 264 263 262 260 258 256 254 252 250 249 248 248 247 246 245 244 243 243 242 241 240 241 243 246 247 248 248 248 249 250 251 251 251 252 252 253 253 253 253 252 251 250 249 248
304 303 301 299 297 295 292 289 286 284 282 280 279 279 278 278 277 277 276 275 274 272 271 270 268 266 265 263 260 258 256 254 253 252 251 250 249 248 247 246 245 245 245 245 244 243 243 243 245 246 247 247 247 249 250 251 251 251 251 251 251 252 252 252 251 251 249 248 247
301 301 300 299 298 296 294 291 288 286 283 281 280 279 278 277 276 276 276 275 275 274 274 273 272 270 268 266 263 260 257 254 252 252 251 251 251 250 249 248 247 247 247 247 246 245 245 245 245 246 246 245 246 248 249 251 251 251 251 250 250 250 250 251 251 250 248 247 246
299 299 298 298 297 296 295 293 291 288 286 283 281 280 279 277 277 276 275 275 274 274 273 273 272 272 271 269 267 263 260 257 254 252 251 250 250 250 250 249 249 248 248 247 247 246 245 245 245 245 245 244 245 246 247 249 251 251 251 250 249 248 248 249 250 249 247 245 244
298 298 297 296 295 295 294 293 291 290 288 286 284 282 281 279 278 276 276 275 274 273 273 272 272 271 271 270 269 267 265 261 258 255 252 251 250 250 250 250 250 250 249 248 247 246 245 244 243 243 244 244 243 244 245 246 248 249 249 248 247 247 247 247 247 247 247 245 243
299 298 297 296 295 294 293 292 291 290 289 288 287 285 283 281 279 278 276 275 274 274 273 272 272 271 270 269 269 268 267 265 262 260 257 255 253 252 251 251 250 250 250 249 248 247 245 244 243 242 242 243 242 242 242 243 245 246 247 247 246 245 245 244 244 245 245 245 244
299 298 297 296 295 294 293 292 291 290 290 289 288 287 285 283 281 279 277 275 275 274 273 273 272 271 270 269 268 267 267 266 265 263 261 259 257 255 254 253 252 251 250 249 249 248 246 245 243 243 242 242 242 241 241 241 242 243 243 245 245 245 244 243 243 243 244 245 245
299 298 296 295 295 294 293 292 291 290 290 290 289 288 286 285 283 281 279 277 276 274 273 272 272 271 270 269 268 267 266 266 265 264 263 262 260 259 257 256 254 253 252 251 249 248 247 246 245 244 244 244 243 242 241 241 242 242 242 243 244 245 245 244 243 243 244 245 246
297 297 296 296 295 294 293 292 291 291 290 290 290 289 287 286 284 282 281 279 277 275 273 272 272 271 270 269 269 268 267 265 265 264 263 263 262 261 260 258 257 256 254 253 252 250 249 248 247 246 246 246 246 244 243 242 243 243 244 244 244 245 244 244 244 245 246 246 247
296 296 295 295 294 294 293 292 292 291 291 291 290 289 288 287 286 284 282 280 278 276 274 273 271 270 269 269 268 268 267 266 265 264 264 263 262 262 261 260 259 258 257 255 254 253 251 250 249 248 248 248 248 247 245 244 244 244 245 246 246 245 243 243 244 246 247 248 248
294 294 294 294 293 293 292 292 291 291 291 290 290 289 288 288 287 286 284 282 279 277 275 274 272 271 269 269 268 268 267 266 266 265 264 263 263 262 261 261 260 259 258 257 256 255 253 252 251 250 250 249 249 248 247 246 245 245 246 247 246 245 243 242 243 245 246 247 247
292 292 292 292 292 291 291 291 290 290 289 289 289 288 288 288 287 287 285 284 281 279 277 275 273 272 270 269 268 267 267 266 266 265 265 264 263 262 262 261 260 259 259 258 257 256 255 254 253 252 251 251 250 249 249 248 247 247 247 247 246 245 243 243 244 244 245 245 245
290 290 290 290 290 290 289 289 288 288 288 288 288 287 287 287 286 286 285 284 282 280 278 276 274 273 271 270 269 267 267 266 266 265 265 264 263 263 262 261 260 260 259 258 258 257 256 255 255 254 253 252 251 250 250 249 248 248 248 247 246 245 245 245 246 246 246 245 244
288 288 288 288 288 288 288 288 287 287 286 286 286 286 286 285 285 285 284 284 282 281 279 278 276 274 272 271 270 268 267 266 265 265 264 264 263 263 262 261 260 260 259 259 258 257 257 256 255 255 254 253 252 251 250 250 249 249 248 247 246 245 245 246 247 248 247 246 246
288 287 287 287 287 287 286 286 286 285 285 285 284 284 284 284 284 283 283 282 281 281 279 278 277 275 273 272 270 269 268 266 266 265 264 264 263 262 262 261 260 260 259 259 259 258 257 257 256 255 255 254 253 252 251 250 250 249 249 248 246 245 244 245 246 247 248 248 247
287 287 286 286 286 285 285 285 285 284 284 283 283 283 283 282 282 282 281 281 280 279 279 278 277 276 274 273 271 270 268 267 266 265 264 263 263 262 261 261 260 260 259 259 259 258 258 257 257 256 256 255 254 253 252 251 250 249 249 248 247 246 245 245 245 246 247 248 248
287 287 286 286 285 285 284 284 284 284 283 283 282 282 281 281 281 280 280 279 279 278 277 277 276 275 275 273 272 271 269 268 266 265 264 263 263 262 261 260 260 259 259 259 258 258 258 258 258 257 257 256 255 254 253 252 251 250 249 249 248 247 246 245 245 246 246 247 248
288 287 287 286 285 285 284 284 284 283 283 282 282 281 281 280 280 279 279 278 278 277 276 275 275 274 273 273 272 271 270 268 267 266 265 264 263 262 261 260 260 259 259 258 258 258 258 258 258 258 257 257 256 255 255 254 253 252 251 250 249 248 247 246 246 246 246 247 248
290 289 288 287 286 285 285 284 284 283 283 283 282 282 281 280 280 279 278 278 277 276 275 274 274 273 272 271 271 270 270 269 267 266 265 264 263 262 261 260 259 259 258 258 257 257 257 257 257 257 257 257 257 256 256 255 254 253 252 252 251 250 249 248 247 247 246 246 247
291 290 289 288 287 286 286 285 284 284 283 283 282 282 281 281 280 279 279 278 277 276 276 275 274 272 271 270 270 269 269 268 267 266 265 264 263 262 261 260 259 258 258 257 257 256 256 256 256 256 256 256 256 256 256 256 255 254 254 253 252 251 251 250 249 248 247 247 247
290 290 290 289 288 288 287 286 285 285 284 283 283 282 282 281 281 280 279 279 278 277 276 275 274 273 272 270 269 268 268 267 267 266 265 264 263 262 261 260 259 259 258 257 257 256 256 255 255 255 255 255 256 256 256 256 255 255 255 254 253 253 252 251 251 250 249 249 248
289 289 289 288 288 288 288 287 287 286 285 285 284 283 282 282 281 281 280 280 279 278 277 276 275 274 273 271 270 269 268 267 266 266 265 264 263 262 261 260 260 259 258 257 257 256 256 255 255 254 254 254 254 254 255 255 255 255 255 255 254 254 253 253 252 251 251 250 250
286 286 286 286 286 287 286 286 286 286 286 286 285 285 284 283 282 282 281 281 280 279 278 277 276 275 274 273 271 270 268 267 266 265 265 264 263 262 261 261 260 259 259 258 257 256 256 255 255 254 254 253 253 253 253 254 254 254 255 255 255 254 254 254 253 253 252 252 251
285 284 284 284 284 284 284 284 285 285 285 285 285 285 285 284 284 283 282 282 281 280 280 279 278 277 276 274 273 272 270 269 267 266 265 264 263 262 262 261 260 260 259 258 258 257 257 256 255 255 254 253 253 252 252 252 253 253 254 254 254 255 254 254 254 254 253 253 252
283 283 283 283 283 283 283 283 283 283 283 283 283 283 284 284 283 283 282 282 282 281 281 280 279 278 277 276 275 273 272 270 269 267 266 265 263 263 262 261 261 260 259 259 258 258 257 257 256 256 255 254 253 252 252 252 252 252 252 253 253 254 254 254 254 254 254 254 253
283 283 283 283 282 282 282 282 282 281 281 281 281 281 281 281 281 281 281 281 281 281 281 280 280 279 279 278 276 275 274 272 271 269 267 266 264 263 262 262 261 261 260 260 259 259 258 257 257 256 256 255 254 253 252 252 251 251 251 252 252 253 253 254 254 254 254 254 254
283 283 283 283 283 282 282 282 281 281 281 280 280 280 279 279 279 279 278 278 278 279 279 279 279 279 279 278 277 276 275 274 272 271 269 267 266 264 263 262 261 261 261 260 260 259 259 258 257 257 256 256 255 254 253 252 252 251 251 251 252 252 252 252 253 253 254 254 254
284 284 284 283 283 283 282 282 282 281 281 280 280 279 279 278 278 277 277 277 276 276 276 276 277 278 278 278 278 277 276 275 273 272 270 269 267 265 264 262 262 261 261 261 260 260 259 259 258 257 257 256 256 255 254 254 253 252 251 251 251 251 251 251 252 252 253 253 253
285 284 284 284 284 283 283 283 282 282 281 281 280 280 279 279 278 278 277 277 276 275 274 274 274 275 275 276 277 277 276 275 273 272 271 269 268 266 265 263 262 262 261 261 261 260 260 259 259 258 257 257 256 256 255 255 254 253 252 252 251 251 251 251 251 251 252 252 253
285 285 285 284 284 284 284 283 283 282 282 281 280 280 279 279 279 278 278 277 277 276 275 274 273 272 273 273 274 275 275 274 273 272 271 269 268 267 266 264 263 262 262 261 261 261 260 260 259 259 258 257 257 256 256 255 255 254 254 253 253 252 251 251 251 251 251 252 252
286 286 285 285 285 284 284 284 283 283 282 282 281 280 280 279 279 278 278 278 277 277 276 275 274 273 272 271 271 272 273 273 272 271 270 268 267 266 265 264 263 262 262 261 261 261 260 260 259 259 258 258 257 257 256 256 255 255 254 254 254 253 253 252 251 251 251 251 251
287 286 286 286 285 285 284 284 284 283 283 282 282 281 280 280 279 278 278 278 278 277 276 276 275 274 273 272 271 270 271 271 271 270 269 267 266 265 265 264 263 262 261 261 261 261 260 260 259 259 258 258 257 257 256 256 255 255 255 254 254 254 253 253 252 252 252 251 251
287 287 286 286 285 285 284 284 284 283 283 282 282 282 281 281 280 279 279 278 278 277 276 276 276 275 274 273 272 271 270 269 269 269 268 267 265 264 264 263 263 262 261 260 260 260 260 260 259 259 259 258 257 256 256 256 255 255 255 254 254 254 254 253 253 253 252 252 252
287 287 286 286 285 285 284 284 284 283 283 282 282 282 281 281 280 280 279 279 278 277 277 276 276 275 275 274 273 272 270 269 268 268 267 266 265 264 263 262 262 261 260 259 259 258 258 259 259 259 258 258 257 256 256 255 255 255 255 254 254 254 254 253 253 253 253 252 252
287 287 286 286 285 285 285 284 284 283 283 282 282 282 281 281 280 280 279 279 278 278 277 276 276 275 274 274 274 273 271 270 268 267 266 265 265 264 263 262 261 260 260 259 258 257 257 257 257 258 258 257 257 256 256 255 255 255 254 254 254 254 254 253 253 253 253 252 252
287 287 287 286 286 285 285 284 284 283 283 283 282 282 281 281 280 280 279 279 278 278 277 277 276 275 274 274 273 273 272 270 269 267 266 265 264 264 263 262 261 260 259 258 258 257 256 256 256 256 257 257 256 256 255 255 254 254 254 254 254 254 254 253 253 253 253 252 252
288 287 287 286 286 286 285 285 284 284 283 283 282 282 281 281 281 280 280 279 278 278 277 276 276 275 274 274 273 272 271 271 270 268 267 266 264 263 263 262 261 260 259 258 257 257 256 255 255 255 255 255 255 255 254 254 254 253 253 253 254 254 254 254 253 253 253 252 252